VE4GLS Weather Reports


time (UTC)temp
F
wind
direction
speed
knots
gust
knots
rain 1hr
in
rain 24hr
in
rain mn
in
humidity
%
barometer
mb
20260906205119 82 149 4.3 6.1 0.00 0.02 0.00 75 1015.4
20260906204539 82 154 2.6 2.6 0.00 0.02 0.00 75 1015.5
20260906203619 83 137 2.6 4.3 0.00 0.02 0.00 74 1015.4
20260906203539 83 148 6.1 6.1 0.00 0.02 0.00 74 1015.4
20260906202541 83 110 0.9 1.7 0.00 0.02 0.00 75 1015.3
20260906202119 83 149 2.6 5.2 0.00 0.02 0.00 74 1015.1
20260906201541 83 151 1.7 4.3 0.00 0.02 0.00 74 1015.2
20260906200619 83 149 5.2 7.0 0.00 0.02 0.00 74 1014.9
20260906200539 83 126 6.1 10.4 0.00 0.02 0.00 74 1014.9
20260906195539 83 127 6.1 8.7 0.00 0.02 0.00 74 1014.8
20260906195119 83 136 5.2 8.7 0.00 0.02 0.00 74 1014.7
20260906194539 83 117 6.1 8.7 0.00 0.02 0.00 74 1014.7
20260906193619 83 110 5.2 6.1 0.00 0.02 0.00 74 1014.6
20260906193541 83 149 7.0 7.8 0.00 0.02 0.00 73 1014.6
20260906192541 83 74 8.7 11.3 0.00 0.02 0.00 73 1014.4
20260906192119 83 88 7.8 10.4 0.00 0.02 0.00 74 1014.5
20260906191539 83 127 8.7 11.3 0.00 0.02 0.00 74 1014.7
20260906190618 83 118 7.0 8.7 0.00 0.02 0.00 73 1015.0
20260906190540 83 86 10.4 10.4 0.00 0.02 0.00 73 1015.0
20260906185539 83 87 6.1 7.8 0.00 0.02 0.00 72 1015.2
20260906185119 83 101 6.1 12.2 0.00 0.02 0.00 73 1015.3
20260906184539 83 97 7.0 8.7 0.00 0.02 0.00 73 1015.4
20260906183619 83 106 10.4 11.3 0.00 0.02 0.00 73 1015.6
20260906183541 82 86 8.7 13.0 0.00 0.02 0.00 73 1015.6
20260906182541 81 92 7.8 7.0 0.00 0.02 0.00 75 1015.7
20260906182119 81 106 4.3 4.3 0.00 0.02 0.00 75 1015.7
20260906181539 81 102 4.3 6.1 0.00 0.02 0.00 73 1015.8
20260906180619 81 87 5.2 6.1 0.00 0.02 0.00 74 1016.1
20260906180539 81 79 7.0 7.0 0.00 0.02 0.00 75 1016.1
20260906175540 81 124 5.2 7.8 0.00 0.02 0.00 75 1016.2
20260906175118 81 99 7.0 7.8 0.00 0.02 0.00 74 1016.3
20260906174540 81 74 4.3 7.8 0.00 0.02 0.00 74 1016.4
20260906173618 81 74 7.0 5.2 0.00 0.02 0.00 74 1016.3
20260906173540 81 95 7.0 8.7 0.00 0.02 0.00 74 1016.3
20260906172539 81 92 8.7 10.4 0.00 0.02 0.00 75 1016.4
20260906172119 81 108 5.2 7.8 0.00 0.02 0.00 76 1016.4
20260906171540 80 78 1.7 2.6 0.00 0.02 0.00 74 1016.6
20260906170619 80 143 0.9 1.7 0.00 0.02 0.00 76 1016.5
20260906170541 80 138 2.6 4.3 0.00 0.02 0.00 76 1016.5
20260906165540 79 120 1.7 4.3 0.00 0.02 0.00 77 1016.6
20260906165118 80 93 6.1 7.8 0.00 0.02 0.00 75 1016.6
20260906164540 80 114 4.3 4.3 0.00 0.02 0.00 76 1016.8
20260906163619 79 120 0.9 7.8 0.00 0.02 0.00 77 1017.0
20260906163539 79 126 0.9 0.9 0.00 0.02 0.00 77 1017.1
20260906162539 78 157 1.7 4.3 0.00 0.02 0.00 80 1017.3
20260906162119 78 102 4.3 5.2 0.00 0.02 0.00 79 1017.4
20260906161541 78 96 5.2 7.8 0.00 0.02 0.00 78 1017.5
20260906160618 77 119 0.9 1.7 0.00 0.02 0.00 81 1017.7
20260906160540 77 131 2.6 4.3 0.00 0.02 0.00 81 1017.7
20260906155540 77 125 4.3 5.2 0.00 0.02 0.00 80 1017.7
20260906155118 77 99 5.2 6.1 0.00 0.02 0.00 79 1017.7
20260906154540 77 102 4.3 7.0 0.00 0.02 0.00 80 1017.7
20260906153619 77 149 0.9 1.7 0.00 0.02 0.00 82 1017.7
20260906153539 76 149 0.0 0.9 0.00 0.02 0.00 81 1017.7
20260906152541 76 217 1.7 1.7 0.00 0.02 0.00 83 1017.7
20260906152119 76 125 1.7 2.6 0.00 0.03 0.00 83 1017.7
20260906151540 75 153 1.7 2.6 0.00 0.03 0.00 84 1017.7
20260906150618 75 183 1.7 4.3 0.00 0.04 0.00 84 1017.8
20260906150540 75 197 2.6 4.3 0.00 0.04 0.00 84 1017.8
20260906145540 74 136 5.2 7.0 0.00 0.04 0.00 86 1017.6
20260906145118 73 134 2.6 4.3 0.00 0.04 0.00 87 1017.5
20260906144540 73 134 4.3 7.0 0.00 0.05 0.00 88 1017.5
20260906143619 72 117 5.2 7.0 0.00 0.05 0.00 89 1017.6
20260906143539 72 116 4.3 7.0 0.00 0.05 0.00 89 1017.6
20260906142540 71 156 0.9 0.9 0.00 0.05 0.00 91 1017.8
20260906142118 71 150 1.7 2.6 0.00 0.05 0.00 92 1017.7
20260906141539 70 129 2.6 4.3 0.00 0.05 0.00 93 1017.7
20260906140619 69 137 1.7 5.2 0.00 0.05 0.00 95 1017.7
20260906140539 69 138 0.0 1.7 0.00 0.05 0.00 95 1017.8
20260906135541 68 131 0.9 4.3 0.02 0.05 0.05 96 1017.9
20260906135118 67 143 4.3 5.2 0.02 0.05 0.05 97 1018.0
20260906134540 67 125 4.3 5.2 0.02 0.05 0.05 97 1017.9
20260906133619 66 116 1.7 2.6 0.02 0.05 0.05 98 1017.7
20260906133539 66 109 1.7 2.6 0.02 0.05 0.05 98 1017.7
20260906132540 65 117 1.7 2.6 0.00 0.03 0.03 99 1017.7
20260906132118 64 127 2.6 2.6 0.00 0.03 0.03 99 1017.7
20260906131540 64 105 2.6 4.3 0.00 0.03 0.03 99 1017.7
20260906130619 63 114 1.7 4.3 0.00 0.03 0.03 99 1017.7
20260906130541 63 108 2.6 4.3 0.00 0.03 0.03 99 1017.7
20260906125541 62 108 2.6 4.3 0.00 0.03 0.03 98 1017.7
20260906125120 62 107 4.3 4.3 0.00 0.03 0.03 98 1017.7
20260906124539 62 95 5.2 6.1 0.00 0.03 0.03 98 1017.8
20260906123619 61 108 2.6 2.6 0.00 0.03 0.03 98 1017.8
20260906123539 61 122 1.7 2.6 0.00 0.03 0.03 98 1017.7
20260906122539 61 121 2.6 2.6 0.00 0.03 0.03 98 1017.7
20260906122119 61 111 2.6 4.3 0.00 0.03 0.03 98 1017.7
20260906121540 61 124 2.6 2.6 0.00 0.03 0.03 98 1017.7
20260906120619 61 100 5.2 6.1 0.00 0.03 0.03 98 1017.7
20260906120539 61 96 5.2 6.1 0.00 0.03 0.03 98 1017.7
20260906115540 61 98 6.1 7.0 0.00 0.03 0.03 98 1017.7
20260906115119 61 98 5.2 6.1 0.00 0.03 0.03 98 1017.7
20260906114539 61 97 5.2 6.1 0.00 0.03 0.03 98 1017.7
20260906113619 61 94 5.2 6.1 0.00 0.03 0.03 98 1017.7
20260906113539 61 97 5.2 6.1 0.00 0.03 0.03 98 1017.7
20260906112539 61 88 4.3 5.2 0.00 0.03 0.03 98 1017.6
20260906112119 61 84 4.3 4.3 0.00 0.03 0.03 98 1017.6
20260906111539 61 100 6.1 6.1 0.00 0.03 0.03 98 1017.6
20260906110619 61 86 4.3 4.3 0.00 0.03 0.03 98 1017.6
20260906110539 61 81 4.3 4.3 0.00 0.03 0.03 98 1017.6
20260906105541 61 98 5.2 7.0 0.00 0.03 0.03 98 1017.5
20260906105119 61 96 5.2 6.1 0.00 0.03 0.03 98 1017.5
20260906104540 61 80 2.6 2.6 0.00 0.03 0.03 98 1017.5
20260906103618 61 100 2.6 4.3 0.00 0.03 0.03 98 1017.3
20260906103540 61 100 2.6 4.3 0.00 0.03 0.03 98 1017.3
20260906102540 61 83 2.6 2.6 0.00 0.03 0.03 98 1017.2
20260906102119 61 104 4.3 6.1 0.00 0.03 0.03 98 1017.3
20260906101540 61 122 1.7 1.7 0.00 0.03 0.03 98 1017.3
20260906100620 62 124 1.7 2.6 0.00 0.03 0.03 98 1017.2
20260906100540 62 115 1.7 2.6 0.00 0.03 0.03 98 1017.2
20260906095539 62 94 4.3 6.1 0.00 0.03 0.03 98 1016.9
20260906095119 62 91 4.3 6.1 0.00 0.03 0.03 98 1016.9
20260906094540 62 94 5.2 7.0 0.00 0.03 0.03 98 1016.9
20260906093618 62 98 5.2 6.1 0.00 0.03 0.03 98 1016.9
20260906093540 62 103 5.2 6.1 0.00 0.03 0.03 98 1016.9
20260906092540 62 93 6.1 7.0 0.00 0.03 0.03 97 1016.9
20260906092120 62 85 4.3 5.2 0.00 0.03 0.03 97 1016.8
20260906091539 62 92 5.2 7.0 0.00 0.03 0.03 97 1016.8
20260906090619 62 96 7.0 7.0 0.00 0.03 0.03 97 1016.7
20260906090539 62 92 7.0 7.0 0.00 0.03 0.03 97 1016.8
20260906085539 63 93 4.3 4.3 0.00 0.03 0.03 97 1016.5
20260906085119 63 101 6.1 6.1 0.00 0.03 0.03 97 1016.5
20260906084539 62 101 7.0 7.0 0.00 0.03 0.03 97 1016.5
20260906083620 63 96 6.1 6.1 0.00 0.03 0.03 97 1016.7
20260906083540 63 98 7.0 6.1 0.00 0.03 0.03 97 1016.7
20260906082540 62 101 6.1 6.1 0.00 0.03 0.03 97 1016.9
20260906082118 62 98 4.3 6.1 0.00 0.03 0.03 97 1017.0
20260906081540 62 94 2.6 2.6 0.00 0.03 0.03 97 1017.2
20260906080619 62 83 4.3 4.3 0.00 0.03 0.03 97 1017.3
20260906080539 62 85 2.6 4.3 0.00 0.03 0.03 97 1017.3
20260906075539 62 49 2.6 2.6 0.00 0.03 0.03 97 1017.3
20260906075118 62 44 2.6 4.3 0.00 0.03 0.03 97 1017.4
20260906074540 62 50 4.3 5.2 0.00 0.03 0.03 97 1017.3
20260906073618 62 73 1.7 2.6 0.00 0.03 0.03 96 1017.2
20260906073540 62 73 1.7 2.6 0.00 0.03 0.03 96 1017.2
20260906072539 63 73 2.6 2.6 0.00 0.03 0.03 96 1017.1
20260906072119 63 96 2.6 2.6 0.00 0.03 0.03 96 1017.2
20260906071539 63 98 2.6 2.6 0.00 0.03 0.03 96 1017.2
20260906070619 63 103 2.6 4.3 0.00 0.03 0.03 96 1017.2
20260906070539 63 103 2.6 2.6 0.00 0.03 0.03 96 1017.2
20260906065540 63 101 2.6 2.6 0.00 0.03 0.03 96 1017.2
20260906065120 63 102 2.6 2.6 0.00 0.03 0.03 96 1017.1
20260906064539 63 98 2.6 4.3 0.00 0.03 0.03 96 1017.0
20260906063619 64 104 1.7 2.6 0.00 0.03 0.03 96 1017.0
20260906063539 64 104 1.7 1.7 0.00 0.03 0.03 96 1017.0
20260906062540 64 106 1.7 2.6 0.00 0.03 0.03 96 1016.9
20260906062119 64 109 1.7 2.6 0.00 0.03 0.03 96 1016.9
20260906061541 64 106 2.6 4.3 0.00 0.03 0.03 95 1016.8
20260906060620 64 106 4.3 4.3 0.00 0.03 0.03 95 1016.8
20260906060540 64 107 4.3 4.3 0.00 0.03 0.03 95 1016.8
20260906055540 64 103 5.2 6.1 0.00 0.03 0.03 95 1016.9
20260906055118 64 102 1.7 2.6 0.00 0.03 0.03 95 1017.0
20260906054540 64 96 2.6 4.3 0.00 0.03 0.03 95 1016.9
20260906053618 65 100 4.3 4.3 0.00 0.03 0.03 94 1016.9
20260906053540 65 97 4.3 6.1 0.00 0.03 0.03 94 1016.9
20260906052541 65 86 4.3 2.6 0.00 0.03 0.03 94 1016.9
20260906052119 65 82 2.6 4.3 0.00 0.03 0.03 94 1016.9
20260906051540 65 84 5.2 4.3 0.00 0.03 0.03 94 1016.9
20260906050618 65 91 7.0 7.8 0.00 0.03 0.03 94 1017.0
20260906050540 66 84 5.2 7.0 0.00 0.03 0.03 94 1017.0
20260906045539 66 97 8.7 7.8 0.00 0.03 0.03 93 1016.9
20260906045119 66 101 8.7 7.8 0.00 0.03 0.03 93 1016.8
20260906044541 66 96 8.7 7.8 0.00 0.03 0.03 93 1016.8
20260906043620 66 93 8.7 8.7 0.00 0.03 0.03 92 1016.9
20260906043540 66 90 8.7 8.7 0.00 0.03 0.03 92 1017.0
20260906042540 67 95 7.8 8.7 0.00 0.03 0.03 92 1017.0
20260906042118 67 100 7.0 8.7 0.00 0.03 0.03 92 1017.1
20260906041539 67 92 7.0 7.8 0.00 0.03 0.03 91 1017.2
20260906040619 67 83 4.3 5.2 0.00 0.03 0.03 91 1017.3
20260906040539 67 82 4.3 4.3 0.00 0.03 0.03 91 1017.3
20260906035541 67 92 6.1 7.0 0.00 0.03 0.03 91 1017.4
20260906035119 68 81 6.1 7.0 0.00 0.03 0.03 91 1017.4
20260906034540 68 84 5.2 7.0 0.00 0.03 0.03 90 1017.2
20260906033619 68 80 6.1 7.8 0.00 0.03 0.03 90 1017.1
20260906033539 68 84 6.1 7.0 0.00 0.03 0.03 90 1017.1
20260906032539 68 87 7.0 7.0 0.00 0.03 0.03 90 1017.1
20260906032119 68 93 7.8 7.8 0.00 0.03 0.03 90 1017.1
20260906031539 68 92 7.0 7.0 0.00 0.03 0.03 90 1017.0
20260906030620 68 99 7.0 7.8 0.00 0.03 0.03 90 1017.0
20260906030540 68 100 6.1 7.8 0.00 0.03 0.03 90 1017.0
20260906025541 68 90 6.1 7.0 0.00 0.03 0.03 90 1017.0
20260906025118 68 86 6.1 7.0 0.00 0.03 0.03 89 1017.0
20260906024540 68 99 4.3 7.0 0.00 0.03 0.03 89 1017.0
20260906023619 69 99 5.2 7.0 0.00 0.03 0.03 88 1017.1
20260906023539 69 99 4.3 6.1 0.00 0.03 0.03 88 1017.1
20260906022540 70 100 7.8 7.0 0.00 0.03 0.03 87 1017.1
20260906022118 70 94 5.2 6.1 0.00 0.03 0.03 86 1017.1
20260906021539 70 98 4.3 6.1 0.00 0.03 0.03 86 1017.2
20260906020620 71 116 1.7 2.6 0.00 0.03 0.03 86 1017.1
20260906020540 71 115 1.7 4.3 0.00 0.03 0.03 85 1017.0
20260906015541 71 133 4.3 6.1 0.00 0.03 0.03 85 1017.0
20260906015119 71 128 4.3 8.7 0.00 0.03 0.03 85 1016.8
20260906014539 71 108 2.6 4.3 0.00 0.03 0.03 85 1016.6
20260906013618 71 95 8.7 8.7 0.00 0.03 0.03 85 1016.5
20260906013540 71 98 8.7 8.7 0.00 0.03 0.03 85 1016.5
20260906012539 71 99 8.7 10.4 0.00 0.03 0.03 86 1016.4
20260906012119 71 94 7.0 7.8 0.00 0.03 0.03 85 1016.5
20260906011539 71 99 7.8 7.8 0.00 0.03 0.03 85 1016.5
20260906010619 72 102 7.0 7.8 0.00 0.03 0.03 83 1016.4
20260906010541 72 100 5.2 7.0 0.00 0.03 0.03 83 1016.4
20260906005540 73 120 1.7 2.6 0.00 0.03 0.03 82 1016.5
20260906005119 73 119 1.7 2.6 0.00 0.03 0.03 81 1016.3
20260906004541 73 93 5.2 7.0 0.00 0.03 0.03 80 1016.3
20260906003618 74 98 6.1 7.0 0.00 0.03 0.03 79 1016.0
20260906003540 74 92 6.1 7.0 0.00 0.03 0.03 79 1015.9
20260906002539 74 92 2.6 4.3 0.00 0.03 0.03 77 1015.8
20260906002119 75 94 2.6 4.3 0.00 0.03 0.03 76 1015.7
20260906001540 75 101 4.3 6.1 0.00 0.03 0.03 75 1015.6
20260906000618 76 104 0.9 1.7 0.00 0.03 0.03 74 1015.6
20260906000540 76 104 1.7 1.7 0.00 0.03 0.03 74 1015.6
20260905235541 77 108 2.6 4.3 0.00 0.03 0.03 72 1015.4
20260905235120 77 124 5.2 7.0 0.00 0.03 0.03 71 1015.1
20260905234539 78 110 4.3 6.1 0.00 0.03 0.03 70 1015.1
20260905233620 78 114 4.3 6.1 0.00 0.03 0.03 69 1015.3
20260905233539 78 114 4.3 6.1 0.00 0.03 0.03 69 1015.4
20260905232539 79 128 2.6 5.2 0.00 0.03 0.03 68 1015.5
20260905232119 79 113 2.6 2.6 0.00 0.03 0.03 68 1015.4
20260905231540 80 92 4.3 5.2 0.00 0.03 0.03 66 1015.3
20260905230619 80 122 2.6 6.1 0.00 0.03 0.03 65 1015.3
20260905230539 80 133 0.9 4.3 0.00 0.03 0.03 65 1015.3
20260905225539 80 133 2.6 2.6 0.00 0.03 0.03 65 1015.3
20260905225119 80 143 0.9 2.6 0.00 0.03 0.03 66 1015.3
20260905224541 80 147 2.6 5.2 0.00 0.03 0.03 66 1015.3
20260905223620 79 141 4.3 4.3 0.00 0.03 0.03 67 1015.2
20260905223540 79 131 2.6 7.8 0.00 0.03 0.03 66 1015.2
20260905222539 78 134 4.3 7.0 0.00 0.03 0.03 67 1015.1
20260905222119 78 115 7.0 10.4 0.00 0.03 0.03 67 1015.0
20260905221540 79 132 6.1 8.7 0.00 0.03 0.03 68 1015.1
20260905220619 79 108 7.0 13.9 0.00 0.03 0.03 67 1015.1
20260905220539 79 121 5.2 7.0 0.00 0.03 0.03 67 1015.1
20260905215540 79 122 7.8 10.4 0.00 0.04 0.03 67 1015.2
20260905215118 79 120 6.1 7.0 0.00 0.04 0.03 66 1015.2
20260905214540 79 130 5.2 7.8 0.00 0.04 0.03 68 1015.4
20260905213620 79 147 2.6 8.7 0.00 0.04 0.03 67 1015.7
20260905213540 79 159 2.6 6.1 0.00 0.04 0.03 68 1015.8
20260905212540 79 132 5.2 12.2 0.00 0.04 0.03 66 1015.8
20260905212119 79 130 8.7 10.4 0.00 0.04 0.03 67 1015.9
20260905211539 79 136 7.0 10.4 0.00 0.04 0.03 68 1015.8
20260905210618 78 150 5.2 7.0 0.00 0.04 0.03 68 1016.0
20260905210541 78 138 5.2 7.0 0.00 0.04 0.03 68 1016.0
20260905205539 78 145 6.1 10.4 0.00 0.04 0.03 68 1015.9